Location: Poughquag
(41.6090°N, 73.6820°W)
Time: 01:34:40
(UTC-04:00)

Vanguard 2 - Pass Details

Date: 03 June 2020
Orbit: 552 x 2938 km, 32.9° (Epoch: 06 July)

Event Time Altitude Azimuth Distance (km) Brightness Sun altitude
Rises 20:54:36 0° 259° (W) 6,046 12.8 -5.5°
Reaches altitude 10° 20:59:16 10° 255° (WSW) 4,688 12.1 -6.2°
Maximum altitude 21:10:44 50° 186° (S) 1,826 9.2 -7.9°
Drops below altitude 10° 21:17:40 10° 113° (ESE) 2,887 9.9 -8.8°
Enters shadow 21:17:54 - 112° (ESE) 2,961 9.9 -8.9°
Sets 21:19:54 0° 107° (ESE) 3,606 - -9.2°
